Location: Unnamed
(51.5169°N, 0.1311°W)
Time: 20:10:04
(UTC+01:00)

Tiros 1 - Pass Details

Date: 10 August 2024
Orbit: 623 x 655 km, 48.4° (Epoch: 16 September)

Event Time Altitude Azimuth Distance (km) Brightness Sun altitude
Rises 06:08:23 0° 210° (SSW) 2,966 10.1 3.4°
Reaches altitude 10° 06:11:09 10° 195° (SSW) 2,060 9.4 3.8°
Maximum altitude 06:14:45 22° 146° (SE) 1,444 9.2 4.3°
Drops below altitude 10° 06:18:21 10° 96° (E) 2,066 11.1 4.8°
Sets 06:21:07 0° 82° (E) 2,978 12.8 5.3°
